This demonstration page uses our WeatherBlox Daily Observations layout. Learn more.

Left ArrowRight Arrow

34.74481, -87.66753

Hourly Observations for September 5, 2019

Temp ( °F °C ) Dew Point ( °F °C ) Humidity (%) Winds ( mph kmh ) Pressure ( in mb ) Visibility ( mi km ) Precip ( " mm )
12:53 am 00:53 Clear 80 26.7 73 22.8 79 79 NNW 5 7 29.98 1015 10 16 0.00 0.00
1:53 am 01:53 Clear 80 26.7 73 22.8 79 79 NNE 6 9 29.98 1015 10 16 0.00 0.00
2:53 am 02:53 Clear 79 26.1 73 22.8 82 82 VRB 5 7 29.98 1015 10 16 0.00 0.00
3:53 am 03:53 Clear 77 25 72 22.2 85 85 NE 6 9 29.98 1015 10 16 0.00 0.00
4:53 am 04:53 Clear 77 25 71 21.7 82 82 NNE 5 7 29.99 1016 10 16 0.00 0.00
5:53 am 05:53 Clear 76 24.4 70 21.1 82 82 NNE 6 9 30.01 1016 10 16 0.00 0.00
6:53 am 06:53 Mostly Cloudy 75 23.9 69 20.6 82 82 N 5 7 30.02 1017 10 16 0.00 0.00
7:53 am 07:53 Sunny 78 25.6 68 20 71 71 NNW 3 6 30.04 1017 10 16 0.00 0.00
8:53 am 08:53 Sunny 81 27.2 67 19.4 62 62 NNW 6 9 30.04 1017 10 16 0.00 0.00
9:53 am 09:53 Sunny 85 29.4 66 18.9 53 53 NNW 7 11 30.03 1017 10 16 0.00 0.00
10:53 am 10:53 Sunny 87 30.6 64 17.8 46 46 NNW 10 17 30.02 1017 10 16 0.00 0.00
12:06 pm 12:06 Sunny 89 31.7 58 14.4 35 35 NNW 10 17 30.01 1016 10 16 0.00 0.00
12:53 pm 12:53 Sunny 89 31.7 57 13.9 34 34 NW 10 17 30.01 1016 10 16 0.00 0.00
1:53 pm 13:53 Sunny 90 32.2 57 13.9 33 33 NNW 10 17 29.99 1016 10 16 0.00 0.00
2:53 pm 14:53 Sunny 90 32.2 58 14.4 34 34 NNW 10 17 29.98 1015 10 16 0.00 0.00
3:53 pm 15:53 Sunny 89 31.7 56 13.3 33 33 NNW 12 19 29.97 1015 10 16 0.00 0.00
4:53 pm 16:53 Sunny 89 31.7 58 14.4 35 35 NNW 12 19 29.96 1015 10 16 0.00 0.00
5:53 pm 17:53 Sunny 86 30 59 15 40 40 NNW 8 13 29.97 1015 10 16 0.00 0.00
6:53 pm 18:53 Sunny 83 28.3 60 15.6 46 46 NNW 6 9 29.97 1015 10 16 0.00 0.00
7:53 pm 19:53 Clear 77 25 62 16.7 60 60 NW 5 7 29.98 1015 10 16 0.00 0.00
8:53 pm 20:53 Clear 77 25 61 16.1 58 58 NNW 5 7 29.99 1016 10 16 0.00 0.00
9:53 pm 21:53 Clear 75 23.9 61 16.1 62 62 N 7 11 29.99 1016 10 16 0.00 0.00
10:53 pm 22:53 Clear 74 23.3 62 16.7 67 67 N 5 7 30.00 1016 10 16 0.00 0.00
11:53 pm 23:53 Clear 74 23.3 62 16.7 67 67 N 6 9 29.99 1016 10 16 0.00 0.00

Powered by AerisWeather